STARLINK-1865 (46741 NORAD) Tracking and Keplerian Element Data

This shows tracking and keplerian element data for the satellite.

Feedback or suggestion? Click here.




ElementValue
Catalog46741
NameSTARLINK-1865
Epoch Orbit1386
Epoch Day18.25002315
Epoch Year2021
RAAN105.3231
Inclination53.0582
Eccentricity0.000124
Argument of Perigee80.8016
Mean Anonmoly280.9314
Mean Motion15.11930238
Decay Rate-0.0105765
L11 46741U 20074C 21018.25002315 -.01057650 00000-0 -65825-1 0 9998
L22 46741 53.0582 105.3231 0001240 80.8016 280.9314 15.11930238 13860

Live tracking and technical data element details for STARLINK-1865 (NORAD 46741). STARLINK-1865 can be tracked NOW for your location showing map with azimuth and elevation plus other details from your city location.

Track the satellite on the map from your city or location and see movement details for azimuth, elevation, latitude, longitude, range, height, and movement on the map or in text.







IsCatalogInMostPopularTable: catalog: 46741, numindb: 28
Update: records affected: 1



GetName: 46741 STARLINK-1865

Hit Count: updated at: Mon, 18 Jan 2021 16:42:52 GMT